Starlink 31492

operational
NORAD ID: 59212 Int'l Des: 2024-046 Owner: SPXS Country: US Constellation: starlink
LEOCIRCULAR

Starlink 31492について

説明を読み込み中...

リアルタイム位置

3D地球を読み込み中...

次回通過

高度履歴

Altitude vs Time

uPlot chart will show altitude changes over time

軌道要素

1 59212U 24046M 26035.17245189 -.00012831 00000-0 -42126-3 0 9993
2 59212 53.1610 311.3183 0000717 97.6882 262.4200 15.30244672107909
Epoch: Feb 4, 2026 • Age: 25 hours

現在のステータス

高度 486.0 km
速度 7.62 km/s
衛星直下点 -33.27°S, 66.4°E
打ち上げ日 Mar 11, 2024
運用期間 1.9 years
タイプ internet

技術仕様

分類 Payload
質量 730.00 kg
乾燥質量 700.00 kg
総質量 730.00 kg
長さ 0.30 m
直径 4.10 m
スパン 29.00 m
形状 Box + pan
製造者 SPXS
バスタイプ Starlink V2M
フェーズステータス In Orbit
所有者/国 SPXS/US

大規模コンステレーション

Loading constellations...